Погода в Большом Клочково

Россия / Ивановская область     56°53′08″N   40°36′32″E
темп.,
°C
ветер,
м/с
пор.,
м/с
влажн.,
%
обл.,
%
осадки,
мм/ч
давл.,
гПа
погр.,
м
21 апреля, ср
ср2100:00+5вюв61378100 0.8 10161026
03:00+2в61596100 2.1 1012788
06:00+1в71797100 4.6 1007903
09:00+4вюв81891100 6.5 10041196
12:00+4ююз61295100 4.2 1005874
15:00+3ю3997100 7.9 1007545
18:00+3ююз3790100 0.1 1008615
21:00+3ююз3892100 0.1 1010395
22 апреля, чт
чт2200:00+3ююз3894100 0.0 1011358
03:00+3ю3895100 0.0 1012318
06:00+3ю4994100 0.0 1013412
09:00+5ююз5889100 0.0 1014573
12:00+8ю5980100 0.1 10151057
15:00+10ююз5973100 0.2 10151165
18:00+9ююз41078100 0.0 1016515
21:00+7ю4118330 0.1 1017325
23 апреля, пт
пт2300:00+7ююв4118689 0.0 1016277
03:00+6ююв412935 0.0 1016344
06:00+6ююв4119440 0.0 1016333
09:00+11ю510737 0.0 1016567
12:00+15ю6115047 0.1 10152093
15:00+15ю6104874 0.1 10152042
18:00+14ююв510517 0.0 10141233
21:00+10юв4136921 0.1 1014472
24 апреля, сб
сб2400:00+9юв514737 0.0 1013488
03:00+7юв5148120 0.1 1011426
06:00+7юв5158179 0.1 1009558
09:00+12юв6136962 0.3 10061083
12:00+14ю71361100 1.3 10042193
15:00+4з4794100 1.9 1007451
18:00+4зсз3891100 1.5 1007698
21:00+4з2691100 1.6 1007559
25 апреля, вс
вс2500:00+3зюз2596100 0.1 1006225
03:00+2зюз389698 0.2 1005391
06:00+2зюз3992100 0.0 1006371
09:00+5з58708 0.0 1006887
12:00+7зюз6852100 0.4 10061910
15:00+7з795680 0.8 10071719
18:00+6з48618 0.0 10081294
21:00+2юз39795 0.0 1009256